| time (UTC) | temp F | wind direction | speed MPH | gust MPH | rain 1hr in | rain 24hr in | rain mn in | humidity % | barometer mb |
| 20260508141228 | 54 | 236 | 2.0 | 2.0 | 0.00 | 0.00 | 0.00 | 43 | 1010.0 |
| 20260508140725 | 54 | 203 | 1.0 | 2.0 | 0.00 | 0.00 | 0.00 | 44 | 1010.2 |
| 20260508140222 | 54 | 210 | 1.0 | 3.0 | 0.00 | 0.00 | 0.00 | 43 | 1010.0 |
| 20260508135718 | 54 | 183 | 2.0 | 3.0 | 0.00 | 0.00 | 0.00 | 42 | 1010.2 |
| 20260508135214 | 54 | 207 | 3.0 | 5.0 | 0.00 | 0.00 | 0.00 | 41 | 1010.2 |
| 20260508134709 | 54 | 162 | 2.0 | 6.0 | 0.00 | 0.00 | 0.00 | 41 | 1010.3 |
| 20260508134207 | 54 | 241 | 0.0 | 3.0 | 0.00 | 0.00 | 0.00 | 42 | 1010.2 |
| 20260508133704 | 55 | 174 | 3.0 | 5.0 | 0.00 | 0.00 | 0.00 | 40 | 1010.1 |
| 20260508133201 | 53 | 336 | 0.0 | 1.0 | 0.00 | 0.00 | 0.00 | 42 | 1010.2 |
| 20260508132659 | 52 | 100 | 1.0 | 5.0 | 0.00 | 0.00 | 0.00 | 42 | 1010.4 |
| 20260508132156 | 52 | 75 | 0.0 | 2.0 | 0.00 | 0.00 | 0.00 | 43 | 1010.4 |
| 20260508131651 | 51 | 114 | 1.0 | 3.0 | 0.00 | 0.00 | 0.00 | 43 | 1010.4 |
| 20260508131148 | 51 | 147 | 4.0 | 5.0 | 0.00 | 0.00 | 0.00 | 43 | 1010.4 |
| 20260508130644 | 51 | 152 | 3.0 | 7.0 | 0.00 | 0.00 | 0.00 | 43 | 1010.6 |
| 20260508130142 | 50 | 47 | 0.0 | 1.0 | 0.00 | 0.00 | 0.00 | 44 | 1010.5 |
| 20260508125637 | 50 | 71 | 2.0 | 2.0 | 0.00 | 0.00 | 0.00 | 45 | 1010.4 |
| 20260508125134 | 49 | 139 | 2.0 | 6.0 | 0.00 | 0.00 | 0.00 | 44 | 1010.6 |
| 20260508124632 | 49 | 88 | 3.0 | 6.0 | 0.00 | 0.00 | 0.00 | 43 | 1010.5 |
| 20260508124129 | 48 | 81 | 3.0 | 6.0 | 0.00 | 0.00 | 0.00 | 45 | 1010.6 |
| 20260508123628 | 48 | 89 | 3.0 | 3.0 | 0.00 | 0.00 | 0.00 | 45 | 1010.4 |
| 20260508123125 | 48 | 137 | 3.0 | 5.0 | 0.00 | 0.00 | 0.00 | 46 | 1010.3 |
| 20260508122620 | 47 | 159 | 3.0 | 3.0 | 0.00 | 0.00 | 0.00 | 46 | 1010.3 |
| 20260508122118 | 47 | 67 | 1.0 | 3.0 | 0.00 | 0.00 | 0.00 | 47 | 1010.4 |
| 20260508121616 | 47 | 80 | 1.0 | 5.0 | 0.00 | 0.00 | 0.00 | 47 | 1010.6 |
| 20260508121114 | 46 | 148 | 3.0 | 3.0 | 0.00 | 0.00 | 0.00 | 48 | 1010.4 |
| 20260508120611 | 46 | 83 | 1.0 | 5.0 | 0.00 | 0.00 | 0.00 | 48 | 1010.4 |
| 20260508120109 | 45 | 156 | 1.0 | 2.0 | 0.00 | 0.00 | 0.00 | 49 | 1010.3 |
| 20260508115607 | 45 | 91 | 0.0 | 2.0 | 0.00 | 0.00 | 0.00 | 50 | 1010.4 |
| 20260508115103 | 44 | 99 | 1.0 | 1.0 | 0.00 | 0.00 | 0.00 | 50 | 1010.5 |
| 20260508114600 | 44 | 106 | 0.0 | 1.0 | 0.00 | 0.00 | 0.00 | 50 | 1010.4 |
| 20260508114056 | 44 | 86 | 1.0 | 2.0 | 0.00 | 0.00 | 0.00 | 50 | 1010.5 |
| 20260508113554 | 43 | 88 | 1.0 | 2.0 | 0.00 | 0.00 | 0.00 | 51 | 1010.2 |
| 20260508113052 | 43 | 92 | 0.0 | 1.0 | 0.00 | 0.00 | 0.00 | 51 | 1010.5 |
| 20260508112548 | 43 | 111 | 1.0 | 1.0 | 0.00 | 0.00 | 0.00 | 51 | 1010.3 |
| 20260508112045 | 43 | 107 | 0.0 | 1.0 | 0.00 | 0.00 | 0.00 | 51 | 1010.4 |
| 20260508111542 | 43 | 127 | 2.0 | 2.0 | 0.00 | 0.00 | 0.00 | 51 | 1010.5 |
| 20260508111039 | 43 | 115 | 0.0 | 0.0 | 0.00 | 0.00 | 0.00 | 51 | 1010.6 |
| 20260508110537 | 43 | 124 | 0.0 | 1.0 | 0.00 | 0.00 | 0.00 | 51 | 1010.2 |
| 20260508110032 | 42 | 127 | 0.0 | 3.0 | 0.00 | 0.00 | 0.00 | 51 | 1010.3 |
| 20260508105527 | 42 | 130 | 0.0 | 1.0 | 0.00 | 0.00 | 0.00 | 51 | 1010.2 |
| 20260508105025 | 42 | 109 | 1.0 | 2.0 | 0.00 | 0.00 | 0.00 | 51 | 1010.4 |
| 20260508104523 | 42 | 130 | 0.0 | 0.0 | 0.00 | 0.00 | 0.00 | 51 | 1010.3 |
| 20260508104019 | 43 | 102 | 0.0 | 1.0 | 0.00 | 0.00 | 0.00 | 51 | 1010.4 |
| 20260508103516 | 43 | 103 | 0.0 | 1.0 | 0.00 | 0.00 | 0.00 | 50 | 1010.5 |
| 20260508103013 | 43 | 124 | 0.0 | 3.0 | 0.00 | 0.00 | 0.00 | 50 | 1010.4 |
| 20260508102511 | 43 | 117 | 2.0 | 3.0 | 0.00 | 0.00 | 0.00 | 50 | 1010.3 |
| 20260508102009 | 43 | 114 | 0.0 | 2.0 | 0.00 | 0.00 | 0.00 | 49 | 1010.4 |
| 20260508101506 | 43 | 126 | 2.0 | 2.0 | 0.00 | 0.00 | 0.00 | 49 | 1010.4 |
| 20260508101003 | 43 | 137 | 1.0 | 2.0 | 0.00 | 0.00 | 0.00 | 49 | 1010.5 |
| 20260508100501 | 43 | 144 | 1.0 | 1.0 | 0.00 | 0.00 | 0.00 | 49 | 1010.5 |
| 20260508095957 | 43 | 141 | 0.0 | 2.0 | 0.00 | 0.00 | 0.00 | 49 | 1010.6 |
| 20260508095455 | 44 | 155 | 1.0 | 2.0 | 0.00 | 0.00 | 0.00 | 49 | 1010.4 |
| 20260508094951 | 44 | 137 | 1.0 | 3.0 | 0.00 | 0.00 | 0.00 | 48 | 1010.5 |
| 20260508094448 | 44 | 112 | 4.0 | 7.0 | 0.00 | 0.00 | 0.00 | 47 | 1010.6 |
| 20260508093945 | 44 | 111 | 2.0 | 3.0 | 0.00 | 0.00 | 0.00 | 48 | 1010.5 |
| 20260508093442 | 44 | 138 | 1.0 | 3.0 | 0.00 | 0.00 | 0.00 | 47 | 1010.5 |
| 20260508092940 | 44 | 115 | 2.0 | 5.0 | 0.00 | 0.00 | 0.00 | 47 | 1010.5 |
| 20260508092437 | 44 | 155 | 1.0 | 2.0 | 0.00 | 0.00 | 0.00 | 47 | 1010.6 |
| 20260508091936 | 44 | 122 | 3.0 | 5.0 | 0.00 | 0.00 | 0.00 | 47 | 1010.5 |
| 20260508091432 | 45 | 112 | 1.0 | 7.0 | 0.00 | 0.00 | 0.00 | 46 | 1010.7 |
| 20260508090929 | 45 | 129 | 1.0 | 3.0 | 0.00 | 0.00 | 0.00 | 47 | 1010.6 |
| 20260508090428 | 44 | 114 | 1.0 | 5.0 | 0.00 | 0.00 | 0.00 | 47 | 1010.7 |
| 20260508085923 | 45 | 149 | 1.0 | 5.0 | 0.00 | 0.00 | 0.00 | 46 | 1010.5 |
| 20260508085420 | 45 | 93 | 2.0 | 3.0 | 0.00 | 0.00 | 0.00 | 46 | 1010.7 |
| 20260508084917 | 45 | 74 | 2.0 | 5.0 | 0.00 | 0.00 | 0.00 | 46 | 1010.6 |
| 20260508084414 | 45 | 108 | 0.0 | 3.0 | 0.00 | 0.00 | 0.00 | 47 | 1010.5 |
| 20260508083912 | 45 | 114 | 1.0 | 2.0 | 0.00 | 0.00 | 0.00 | 46 | 1010.6 |
| 20260508083409 | 45 | 126 | 3.0 | 3.0 | 0.00 | 0.00 | 0.00 | 46 | 1010.6 |
| 20260508082908 | 45 | 88 | 3.0 | 7.0 | 0.00 | 0.00 | 0.00 | 46 | 1010.8 |
| 20260508082406 | 45 | 136 | 2.0 | 3.0 | 0.00 | 0.00 | 0.00 | 46 | 1010.8 |
| 20260508081904 | 46 | 129 | 2.0 | 6.0 | 0.00 | 0.00 | 0.00 | 46 | 1010.7 |
| 20260508081401 | 46 | 128 | 2.0 | 2.0 | 0.00 | 0.00 | 0.00 | 46 | 1010.8 |
| 20260508080857 | 45 | 106 | 2.0 | 5.0 | 0.00 | 0.00 | 0.00 | 46 | 1010.8 |
| 20260508080355 | 46 | 104 | 1.0 | 5.0 | 0.00 | 0.00 | 0.00 | 46 | 1010.8 |
| 20260508075851 | 46 | 153 | 2.0 | 6.0 | 0.00 | 0.00 | 0.00 | 46 | 1010.8 |
| 20260508075349 | 46 | 111 | 4.0 | 7.0 | 0.00 | 0.00 | 0.00 | 46 | 1011.0 |
| 20260508074846 | 46 | 131 | 3.0 | 5.0 | 0.00 | 0.00 | 0.00 | 45 | 1011.1 |
| 20260508074343 | 46 | 119 | 2.0 | 6.0 | 0.00 | 0.00 | 0.00 | 46 | 1010.9 |
| 20260508073840 | 46 | 99 | 1.0 | 7.0 | 0.00 | 0.00 | 0.00 | 46 | 1011.0 |
| 20260508073338 | 46 | 144 | 3.0 | 3.0 | 0.00 | 0.00 | 0.00 | 46 | 1010.9 |
| 20260508072835 | 46 | 133 | 1.0 | 5.0 | 0.00 | 0.00 | 0.00 | 46 | 1010.8 |
| 20260508072331 | 46 | 80 | 1.0 | 6.0 | 0.00 | 0.00 | 0.00 | 46 | 1011.1 |
| 20260508071828 | 46 | 131 | 2.0 | 6.0 | 0.00 | 0.00 | 0.00 | 46 | 1011.1 |
| 20260508071327 | 46 | 113 | 3.0 | 6.0 | 0.00 | 0.00 | 0.00 | 46 | 1011.2 |
| 20260508070824 | 46 | 122 | 1.0 | 2.0 | 0.00 | 0.00 | 0.00 | 47 | 1011.1 |
| 20260508070322 | 46 | 102 | 0.0 | 3.0 | 0.00 | 0.00 | 0.00 | 47 | 1011.2 |
| 20260508065819 | 46 | 106 | 0.0 | 2.0 | 0.00 | 0.00 | 0.00 | 46 | 1011.1 |
| 20260508065317 | 46 | 112 | 1.0 | 2.0 | 0.00 | 0.00 | 0.00 | 46 | 1011.1 |
| 20260508064815 | 46 | 90 | 1.0 | 5.0 | 0.00 | 0.00 | 0.00 | 47 | 1011.2 |
| 20260508064312 | 46 | 115 | 2.0 | 2.0 | 0.00 | 0.00 | 0.00 | 46 | 1011.1 |
| 20260508063810 | 46 | 136 | 2.0 | 2.0 | 0.00 | 0.00 | 0.00 | 46 | 1011.3 |
| 20260508063308 | 46 | 127 | 1.0 | 3.0 | 0.00 | 0.00 | 0.00 | 46 | 1011.2 |
| 20260508062804 | 46 | 100 | 0.0 | 3.0 | 0.00 | 0.00 | 0.00 | 47 | 1011.4 |
| 20260508062306 | 46 | 129 | 1.0 | 2.0 | 0.00 | 0.00 | 0.00 | 47 | 1011.4 |
| 20260508061759 | 46 | 108 | 0.0 | 1.0 | 0.00 | 0.00 | 0.00 | 48 | 1011.5 |
| 20260508061256 | 46 | 215 | 0.0 | 1.0 | 0.00 | 0.00 | 0.00 | 47 | 1011.2 |
| 20260508060752 | 46 | 187 | 0.0 | 1.0 | 0.00 | 0.00 | 0.00 | 48 | 1011.5 |
| 20260508060251 | 46 | 152 | 0.0 | 1.0 | 0.00 | 0.00 | 0.00 | 49 | 1011.5 |
| 20260508055745 | 45 | 111 | 1.0 | 2.0 | 0.00 | 0.00 | 0.00 | 49 | 1011.5 |
| 20260508055243 | 45 | 188 | 0.0 | 0.0 | 0.00 | 0.00 | 0.00 | 50 | 1011.5 |
| 20260508054739 | 45 | 135 | 0.0 | 1.0 | 0.00 | 0.00 | 0.00 | 50 | 1011.5 |
| 20260508054237 | 45 | 154 | 0.0 | 1.0 | 0.00 | 0.00 | 0.00 | 50 | 1011.4 |
| 20260508053734 | 45 | 140 | 1.0 | 1.0 | 0.00 | 0.00 | 0.00 | 50 | 1011.5 |
| 20260508053231 | 45 | 175 | 0.0 | 1.0 | 0.00 | 0.00 | 0.00 | 50 | 1011.6 |
| 20260508052728 | 45 | 186 | 0.0 | 0.0 | 0.00 | 0.00 | 0.00 | 50 | 1011.4 |
| 20260508052225 | 46 | 113 | 0.0 | 0.0 | 0.00 | 0.00 | 0.00 | 49 | 1011.6 |
| 20260508051722 | 46 | 97 | 1.0 | 2.0 | 0.00 | 0.00 | 0.00 | 47 | 1011.5 |
| 20260508051217 | 46 | 134 | 0.0 | 1.0 | 0.00 | 0.00 | 0.00 | 49 | 1011.7 |
| 20260508050714 | 47 | 188 | 0.0 | 0.0 | 0.00 | 0.00 | 0.00 | 46 | 1011.8 |
| 20260508050211 | 46 | 180 | 0.0 | 1.0 | 0.00 | 0.00 | 0.00 | 47 | 1011.7 |
| 20260508045706 | 46 | 229 | 0.0 | 0.0 | 0.00 | 0.00 | 0.00 | 47 | 1011.5 |
| 20260508045205 | 47 | 183 | 0.0 | 1.0 | 0.00 | 0.00 | 0.00 | 46 | 1011.8 |
| 20260508044702 | 47 | 144 | 0.0 | 1.0 | 0.00 | 0.00 | 0.00 | 45 | 1011.6 |
| 20260508044158 | 47 | 194 | 0.0 | 1.0 | 0.00 | 0.00 | 0.00 | 45 | 1011.7 |
| 20260508043654 | 47 | 179 | 0.0 | 1.0 | 0.00 | 0.00 | 0.00 | 44 | 1011.7 |
| 20260508043152 | 47 | 202 | 0.0 | 1.0 | 0.00 | 0.00 | 0.00 | 44 | 1011.8 |
| 20260508042648 | 47 | 195 | 0.0 | 0.0 | 0.00 | 0.00 | 0.00 | 44 | 1011.8 |
| 20260508042146 | 48 | 217 | 0.0 | 1.0 | 0.00 | 0.00 | 0.00 | 44 | 1011.8 |
| 20260508041642 | 48 | 196 | 0.0 | 1.0 | 0.00 | 0.00 | 0.00 | 43 | 1012.2 |
| 20260508041139 | 48 | 208 | 0.0 | 1.0 | 0.00 | 0.00 | 0.00 | 44 | 1012.0 |
| 20260508040635 | 47 | 166 | 1.0 | 1.0 | 0.00 | 0.00 | 0.00 | 45 | 1012.0 |
| 20260508040133 | 47 | 207 | 0.0 | 0.0 | 0.00 | 0.00 | 0.00 | 45 | 1011.8 |
| 20260508035630 | 48 | 217 | 0.0 | 0.0 | 0.00 | 0.00 | 0.00 | 45 | 1012.1 |
| 20260508035127 | 47 | 192 | 0.0 | 1.0 | 0.00 | 0.00 | 0.00 | 44 | 1012.1 |
| 20260508034624 | 47 | 165 | 1.0 | 1.0 | 0.00 | 0.00 | 0.00 | 45 | 1012.4 |
| 20260508034121 | 47 | 249 | 0.0 | 0.0 | 0.00 | 0.00 | 0.00 | 44 | 1012.1 |
| 20260508033618 | 47 | 260 | 0.0 | 0.0 | 0.00 | 0.00 | 0.00 | 45 | 1012.3 |
| 20260508033117 | 47 | 221 | 0.0 | 0.0 | 0.00 | 0.00 | 0.00 | 45 | 1012.2 |
| 20260508032613 | 48 | 251 | 0.0 | 0.0 | 0.00 | 0.00 | 0.00 | 44 | 1012.1 |
| 20260508032110 | 48 | 271 | 0.0 | 0.0 | 0.00 | 0.00 | 0.00 | 44 | 1012.4 |
| 20260508031608 | 48 | 254 | 0.0 | 0.0 | 0.00 | 0.00 | 0.00 | 44 | 1012.4 |
| 20260508031103 | 48 | 279 | 0.0 | 0.0 | 0.00 | 0.00 | 0.00 | 44 | 1012.2 |
| 20260508030600 | 48 | 279 | 0.0 | 1.0 | 0.00 | 0.00 | 0.00 | 43 | 1012.1 |
| 20260508030058 | 48 | 237 | 0.0 | 0.0 | 0.00 | 0.00 | 0.00 | 43 | 1012.4 |
| 20260508025554 | 48 | 237 | 0.0 | 0.0 | 0.00 | 0.00 | 0.00 | 43 | 1012.3 |
| 20260508025051 | 48 | 237 | 0.0 | 0.0 | 0.00 | 0.00 | 0.00 | 43 | 1012.2 |
| 20260508024547 | 48 | 214 | 0.0 | 0.0 | 0.00 | 0.00 | 0.00 | 42 | 1012.3 |
| 20260508024044 | 49 | 214 | 0.0 | 0.0 | 0.00 | 0.00 | 0.00 | 43 | 1012.1 |
| 20260508023540 | 48 | 265 | 0.0 | 0.0 | 0.00 | 0.00 | 0.00 | 42 | 1012.1 |
| 20260508023038 | 49 | 265 | 0.0 | 0.0 | 0.00 | 0.00 | 0.00 | 42 | 1012.2 |
| 20260508022534 | 49 | 261 | 0.0 | 0.0 | 0.00 | 0.00 | 0.00 | 43 | 1012.1 |
| 20260508022031 | 49 | 261 | 0.0 | 0.0 | 0.00 | 0.00 | 0.00 | 42 | 1012.0 |
| 20260508021527 | 49 | 261 | 0.0 | 0.0 | 0.00 | 0.00 | 0.00 | 41 | 1012.0 |
| 20260508021022 | 49 | 237 | 0.0 | 0.0 | 0.00 | 0.00 | 0.00 | 42 | 1012.1 |
| 20260508020521 | 49 | 237 | 0.0 | 0.0 | 0.00 | 0.00 | 0.00 | 43 | 1011.8 |
| 20260508020018 | 49 | 220 | 0.0 | 0.0 | 0.00 | 0.00 | 0.00 | 44 | 1011.6 |
| 20260508015515 | 49 | 208 | 0.0 | 0.0 | 0.00 | 0.00 | 0.00 | 44 | 1011.7 |
| 20260508015012 | 50 | 239 | 0.0 | 0.0 | 0.00 | 0.00 | 0.00 | 44 | 1011.8 |
| 20260508014508 | 51 | 239 | 0.0 | 0.0 | 0.00 | 0.00 | 0.00 | 42 | 1011.8 |
| 20260508014005 | 51 | 265 | 0.0 | 1.0 | 0.00 | 0.00 | 0.00 | 43 | 1011.7 |
| 20260508013501 | 51 | 217 | 0.0 | 0.0 | 0.00 | 0.00 | 0.00 | 46 | 1011.7 |
| 20260508012958 | 52 | 155 | 0.0 | 0.0 | 0.00 | 0.00 | 0.00 | 40 | 1011.6 |
| 20260508012455 | 53 | 178 | 0.0 | 0.0 | 0.00 | 0.00 | 0.00 | 37 | 1011.7 |
| 20260508011953 | 53 | 194 | 0.0 | 3.0 | 0.00 | 0.00 | 0.00 | 36 | 1011.5 |
| 20260508011450 | 54 | 303 | 0.0 | 1.0 | 0.00 | 0.00 | 0.00 | 37 | 1011.6 |
| 20260508010948 | 54 | 197 | 0.0 | 1.0 | 0.00 | 0.00 | 0.00 | 36 | 1011.5 |
| 20260508010445 | 55 | 176 | 3.0 | 3.0 | 0.00 | 0.00 | 0.00 | 34 | 1011.4 |
| 20260508005942 | 55 | 228 | 1.0 | 2.0 | 0.00 | 0.00 | 0.00 | 34 | 1011.6 |
| 20260508005438 | 56 | 209 | 2.0 | 6.0 | 0.00 | 0.00 | 0.00 | 33 | 1011.4 |
| 20260508004935 | 56 | 226 | 1.0 | 3.0 | 0.00 | 0.00 | 0.00 | 32 | 1011.5 |
| 20260508004431 | 56 | 229 | 1.0 | 3.0 | 0.00 | 0.00 | 0.00 | 32 | 1011.5 |
| 20260508003928 | 56 | 243 | 3.0 | 5.0 | 0.00 | 0.00 | 0.00 | 32 | 1011.5 |
| 20260508003425 | 57 | 261 | 5.0 | 6.0 | 0.00 | 0.00 | 0.00 | 31 | 1011.4 |
| 20260508002922 | 57 | 188 | 3.0 | 9.0 | 0.00 | 0.00 | 0.00 | 31 | 1011.6 |
| 20260508002419 | 57 | 188 | 1.0 | 3.0 | 0.00 | 0.00 | 0.00 | 32 | 1011.4 |
| 20260508001915 | 57 | 220 | 4.0 | 5.0 | 0.00 | 0.00 | 0.00 | 31 | 1011.6 |
| 20260508001411 | 57 | 215 | 4.0 | 8.0 | 0.00 | 0.00 | 0.00 | 31 | 1011.4 |
| 20260508000908 | 57 | 212 | 1.0 | 3.0 | 0.00 | 0.00 | 0.00 | 31 | 1011.4 |
| 20260508000405 | 57 | 223 | 2.0 | 9.0 | 0.00 | 0.00 | 0.00 | 31 | 1011.6 |
| 20260507235901 | 57 | 185 | 4.0 | 8.0 | 0.00 | 0.00 | 0.00 | 30 | 1011.7 |
| 20260507235358 | 57 | 172 | 1.0 | 9.0 | 0.00 | 0.00 | 0.00 | 31 | 1011.7 |
| 20260507234855 | 57 | 160 | 4.0 | 9.0 | 0.00 | 0.00 | 0.00 | 30 | 1011.7 |
| 20260507234351 | 57 | 194 | 2.0 | 7.0 | 0.00 | 0.00 | 0.00 | 30 | 1011.8 |
| 20260507233848 | 57 | 272 | 3.0 | 7.0 | 0.00 | 0.00 | 0.00 | 30 | 1011.8 |
| 20260507233345 | 57 | 241 | 6.0 | 8.0 | 0.00 | 0.00 | 0.00 | 30 | 1011.7 |
| 20260507232843 | 56 | 237 | 5.0 | 8.0 | 0.00 | 0.00 | 0.00 | 30 | 1011.8 |
| 20260507232339 | 56 | 208 | 6.0 | 10.0 | 0.00 | 0.00 | 0.00 | 30 | 1011.8 |
| 20260507231837 | 56 | 133 | 4.0 | 9.0 | 0.00 | 0.00 | 0.00 | 30 | 1012.0 |
| 20260507231334 | 57 | 195 | 3.0 | 5.0 | 0.00 | 0.00 | 0.00 | 30 | 1012.2 |
| 20260507230830 | 56 | 194 | 7.0 | 13.0 | 0.00 | 0.00 | 0.00 | 30 | 1012.0 |
| 20260507230327 | 56 | 193 | 4.0 | 7.0 | 0.00 | 0.00 | 0.00 | 30 | 1012.2 |
| 20260507225827 | 56 | 163 | 1.0 | 3.0 | 0.00 | 0.00 | 0.00 | 30 | 1012.2 |
| 20260507225323 | 56 | 233 | 10.0 | 15.0 | 0.00 | 0.00 | 0.00 | 29 | 1012.3 |
| 20260507224820 | 56 | 174 | 6.0 | 8.0 | 0.00 | 0.00 | 0.00 | 29 | 1012.1 |
| 20260507224316 | 57 | 221 | 5.0 | 7.0 | 0.00 | 0.00 | 0.00 | 29 | 1012.2 |
| 20260507223812 | 57 | 179 | 5.0 | 10.0 | 0.00 | 0.00 | 0.00 | 29 | 1012.3 |
| 20260507223309 | 57 | 154 | 2.0 | 5.0 | 0.00 | 0.00 | 0.00 | 31 | 1012.1 |
| 20260507222806 | 57 | 216 | 2.0 | 3.0 | 0.00 | 0.00 | 0.00 | 29 | 1012.1 |
| 20260507222305 | 56 | 224 | 4.0 | 9.0 | 0.00 | 0.00 | 0.00 | 30 | 1012.2 |
| 20260507221800 | 56 | 189 | 3.0 | 7.0 | 0.00 | 0.00 | 0.00 | 31 | 1012.3 |
| 20260507221256 | 56 | 175 | 2.0 | 11.0 | 0.00 | 0.00 | 0.00 | 30 | 1012.6 |
| 20260507220752 | 56 | 149 | 5.0 | 11.0 | 0.00 | 0.00 | 0.00 | 30 | 1012.5 |
| 20260507220251 | 57 | 212 | 3.0 | 6.0 | 0.00 | 0.00 | 0.00 | 30 | 1012.5 |
| 20260507215746 | 56 | 150 | 1.0 | 6.0 | 0.00 | 0.00 | 0.00 | 33 | 1012.3 |
| 20260507215244 | 56 | 193 | 0.0 | 6.0 | 0.00 | 0.00 | 0.00 | 30 | 1012.5 |
| 20260507214741 | 57 | 257 | 3.0 | 5.0 | 0.00 | 0.00 | 0.00 | 28 | 1012.6 |
| 20260507214238 | 57 | 215 | 4.0 | 7.0 | 0.00 | 0.00 | 0.00 | 28 | 1012.4 |
| 20260507213733 | 57 | 196 | 8.0 | 10.0 | 0.00 | 0.00 | 0.00 | 29 | 1012.5 |
| 20260507213231 | 57 | 158 | 2.0 | 3.0 | 0.00 | 0.00 | 0.00 | 30 | 1012.5 |
| 20260507212726 | 57 | 247 | 5.0 | 7.0 | 0.00 | 0.00 | 0.00 | 30 | 1012.7 |
| 20260507212223 | 56 | 198 | 3.0 | 7.0 | 0.00 | 0.00 | 0.00 | 30 | 1012.5 |
| 20260507211720 | 55 | 259 | 4.0 | 10.0 | 0.00 | 0.00 | 0.00 | 30 | 1012.7 |
| 20260507211216 | 57 | 281 | 3.0 | 10.0 | 0.00 | 0.00 | 0.00 | 30 | 1012.7 |
| 20260507210714 | 56 | 273 | 4.0 | 6.0 | 0.00 | 0.00 | 0.00 | 30 | 1012.8 |
| 20260507210210 | 56 | 272 | 3.0 | 6.0 | 0.00 | 0.00 | 0.00 | 31 | 1012.7 |
| 20260507205707 | 55 | 166 | 4.0 | 16.0 | 0.00 | 0.00 | 0.00 | 31 | 1012.6 |
| 20260507205203 | 56 | 204 | 2.0 | 8.0 | 0.00 | 0.00 | 0.00 | 31 | 1012.9 |
| 20260507204659 | 55 | 194 | 3.0 | 7.0 | 0.00 | 0.00 | 0.00 | 31 | 1012.8 |
| 20260507204158 | 54 | 236 | 2.0 | 5.0 | 0.00 | 0.00 | 0.00 | 31 | 1012.9 |
| 20260507203655 | 56 | 216 | 6.0 | 9.0 | 0.00 | 0.00 | 0.00 | 31 | 1013.1 |
| 20260507203152 | 55 | 205 | 7.0 | 9.0 | 0.00 | 0.00 | 0.00 | 31 | 1013.1 |
| 20260507202648 | 55 | 182 | 3.0 | 5.0 | 0.00 | 0.00 | 0.00 | 32 | 1013.1 |
| 20260507202144 | 56 | 173 | 3.0 | 8.0 | 0.00 | 0.00 | 0.00 | 31 | 1013.3 |
| 20260507201639 | 55 | 165 | 3.0 | 5.0 | 0.00 | 0.00 | 0.00 | 31 | 1013.4 |
| 20260507201137 | 55 | 218 | 1.0 | 2.0 | 0.00 | 0.00 | 0.00 | 31 | 1013.2 |
| 20260507200632 | 56 | 189 | 2.0 | 9.0 | 0.00 | 0.00 | 0.00 | 33 | 1013.5 |
| 20260507200129 | 56 | 227 | 3.0 | 8.0 | 0.00 | 0.00 | 0.00 | 30 | 1013.3 |
| 20260507195626 | 55 | 38 | 1.0 | 2.0 | 0.00 | 0.00 | 0.00 | 31 | 1013.6 |
| 20260507195123 | 53 | 158 | 1.0 | 6.0 | 0.00 | 0.00 | 0.00 | 32 | 1013.3 |
| 20260507194620 | 54 | 192 | 4.0 | 9.0 | 0.00 | 0.00 | 0.00 | 32 | 1013.5 |
| 20260507194115 | 53 | 199 | 4.0 | 7.0 | 0.00 | 0.00 | 0.00 | 32 | 1013.7 |
| 20260507193612 | 53 | 250 | 5.0 | 10.0 | 0.00 | 0.00 | 0.00 | 33 | 1013.5 |
| 20260507193109 | 53 | 227 | 7.0 | 13.0 | 0.00 | 0.00 | 0.00 | 32 | 1013.3 |
| 20260507192606 | 53 | 246 | 5.0 | 7.0 | 0.00 | 0.00 | 0.00 | 32 | 1013.3 |
| 20260507192103 | 54 | 294 | 6.0 | 7.0 | 0.00 | 0.00 | 0.00 | 31 | 1013.6 |
| 20260507191558 | 54 | 200 | 0.0 | 6.0 | 0.00 | 0.00 | 0.00 | 32 | 1013.6 |
| 20260507191055 | 54 | 233 | 1.0 | 6.0 | 0.00 | 0.00 | 0.00 | 31 | 1013.8 |
| 20260507190552 | 54 | 234 | 1.0 | 5.0 | 0.00 | 0.00 | 0.00 | 35 | 1013.6 |
| 20260507190051 | 53 | 175 | 3.0 | 6.0 | 0.00 | 0.00 | 0.00 | 32 | 1013.5 |
| 20260507185549 | 54 | 217 | 7.0 | 13.0 | 0.00 | 0.00 | 0.00 | 31 | 1013.6 |
| 20260507185045 | 53 | 129 | 1.0 | 3.0 | 0.00 | 0.00 | 0.00 | 32 | 1013.5 |
| 20260507184544 | 53 | 248 | 1.0 | 6.0 | 0.00 | 0.00 | 0.00 | 33 | 1013.7 |
| 20260507184041 | 52 | 217 | 2.0 | 7.0 | 0.00 | 0.00 | 0.00 | 34 | 1013.9 |
| 20260507183537 | 53 | 127 | 2.0 | 8.0 | 0.00 | 0.00 | 0.00 | 32 | 1013.9 |
| 20260507183034 | 52 | 282 | 3.0 | 9.0 | 0.00 | 0.00 | 0.00 | 33 | 1013.7 |
| 20260507182530 | 52 | 194 | 1.0 | 5.0 | 0.00 | 0.00 | 0.00 | 34 | 1013.8 |
| 20260507182026 | 52 | 206 | 4.0 | 7.0 | 0.00 | 0.00 | 0.00 | 32 | 1013.9 |
| 20260507181523 | 52 | 220 | 2.0 | 8.0 | 0.00 | 0.00 | 0.00 | 35 | 1014.0 |
| 20260507181020 | 52 | 233 | 5.0 | 8.0 | 0.00 | 0.00 | 0.00 | 33 | 1013.8 |
| 20260507180516 | 53 | 150 | 1.0 | 3.0 | 0.00 | 0.00 | 0.00 | 33 | 1014.0 |
| 20260507180013 | 52 | 158 | 3.0 | 7.0 | 0.00 | 0.00 | 0.00 | 33 | 1013.8 |
| 20260507175509 | 51 | 119 | 2.0 | 7.0 | 0.00 | 0.00 | 0.00 | 32 | 1014.1 |
| 20260507175007 | 52 | 224 | 4.0 | 7.0 | 0.00 | 0.00 | 0.00 | 32 | 1014.0 |
| 20260507174504 | 52 | 227 | 5.0 | 7.0 | 0.00 | 0.00 | 0.00 | 32 | 1014.1 |
| 20260507174002 | 51 | 267 | 5.0 | 9.0 | 0.00 | 0.00 | 0.00 | 33 | 1014.0 |
| 20260507173458 | 51 | 102 | 4.0 | 5.0 | 0.00 | 0.00 | 0.00 | 33 | 1014.1 |
| 20260507172955 | 51 | 125 | 0.0 | 8.0 | 0.00 | 0.00 | 0.00 | 36 | 1014.1 |
| 20260507172451 | 51 | 160 | 5.0 | 7.0 | 0.00 | 0.00 | 0.00 | 34 | 1014.2 |
| 20260507171948 | 51 | 177 | 7.0 | 10.0 | 0.00 | 0.00 | 0.00 | 34 | 1014.3 |
| 20260507171444 | 50 | 162 | 2.0 | 7.0 | 0.00 | 0.00 | 0.00 | 33 | 1014.4 |
| 20260507170941 | 49 | 46 | 1.0 | 5.0 | 0.00 | 0.00 | 0.00 | 35 | 1014.3 |
| 20260507170438 | 50 | 151 | 1.0 | 2.0 | 0.00 | 0.00 | 0.00 | 35 | 1014.5 |
| 20260507165934 | 51 | 185 | 6.0 | 9.0 | 0.00 | 0.00 | 0.00 | 35 | 1014.4 |
| 20260507165430 | 50 | 160 | 3.0 | 7.0 | 0.00 | 0.00 | 0.00 | 35 | 1014.5 |
| 20260507164926 | 50 | 147 | 2.0 | 6.0 | 0.00 | 0.00 | 0.00 | 35 | 1014.8 |
| 20260507164423 | 51 | 207 | 2.0 | 9.0 | 0.00 | 0.00 | 0.00 | 36 | 1014.7 |
| 20260507163920 | 51 | 171 | 2.0 | 3.0 | 0.00 | 0.00 | 0.00 | 38 | 1014.7 |
| 20260507163418 | 50 | 257 | 2.0 | 3.0 | 0.00 | 0.00 | 0.00 | 39 | 1014.7 |
| 20260507162914 | 50 | 10 | 3.0 | 7.0 | 0.00 | 0.00 | 0.00 | 39 | 1014.8 |
| 20260507162410 | 49 | 298 | 4.0 | 5.0 | 0.00 | 0.00 | 0.00 | 38 | 1014.9 |
| 20260507161908 | 49 | 170 | 5.0 | 6.0 | 0.00 | 0.00 | 0.00 | 39 | 1014.9 |
| 20260507161403 | 49 | 241 | 4.0 | 5.0 | 0.00 | 0.00 | 0.00 | 39 | 1014.9 |
| 20260507160900 | 49 | 213 | 4.0 | 7.0 | 0.00 | 0.00 | 0.00 | 38 | 1014.9 |
| 20260507160356 | 50 | 50 | 0.0 | 7.0 | 0.00 | 0.00 | 0.00 | 40 | 1014.8 |
| 20260507155852 | 49 | 27 | 1.0 | 3.0 | 0.00 | 0.00 | 0.00 | 40 | 1015.0 |
| 20260507155348 | 48 | 132 | 1.0 | 3.0 | 0.00 | 0.00 | 0.00 | 42 | 1014.9 |
| 20260507154845 | 48 | 264 | 2.0 | 2.0 | 0.00 | 0.00 | 0.00 | 42 | 1015.0 |
| 20260507154342 | 47 | 351 | 0.0 | 6.0 | 0.00 | 0.00 | 0.00 | 45 | 1015.1 |
| 20260507153839 | 49 | 223 | 4.0 | 6.0 | 0.00 | 0.00 | 0.00 | 41 | 1015.1 |
| 20260507153336 | 48 | 329 | 2.0 | 5.0 | 0.00 | 0.00 | 0.00 | 42 | 1014.9 |
| 20260507152832 | 47 | 201 | 2.0 | 6.0 | 0.00 | 0.00 | 0.00 | 44 | 1015.1 |
| 20260507152329 | 48 | 209 | 6.0 | 7.0 | 0.00 | 0.00 | 0.00 | 43 | 1015.2 |
| 20260507151825 | 47 | 288 | 2.0 | 6.0 | 0.00 | 0.00 | 0.00 | 44 | 1015.1 |
| 20260507151321 | 47 | 191 | 2.0 | 3.0 | 0.00 | 0.00 | 0.00 | 45 | 1015.0 |
| 20260507150818 | 47 | 71 | 1.0 | 2.0 | 0.00 | 0.00 | 0.00 | 47 | 1014.8 |
| 20260507150315 | 46 | 188 | 7.0 | 8.0 | 0.00 | 0.00 | 0.00 | 48 | 1015.4 |
| 20260507145811 | 46 | 213 | 3.0 | 5.0 | 0.00 | 0.00 | 0.00 | 47 | 1015.1 |
| 20260507145308 | 46 | 72 | 2.0 | 2.0 | 0.00 | 0.00 | 0.00 | 45 | 1015.0 |
| 20260507144805 | 45 | 65 | 1.0 | 3.0 | 0.00 | 0.00 | 0.00 | 46 | 1015.1 |
| 20260507144302 | 45 | 79 | 2.0 | 3.0 | 0.00 | 0.00 | 0.00 | 46 | 1015.1 |
| 20260507143758 | 45 | 165 | 4.0 | 5.0 | 0.00 | 0.00 | 0.00 | 47 | 1015.1 |
| 20260507143256 | 44 | 183 | 4.0 | 5.0 | 0.00 | 0.00 | 0.00 | 46 | 1015.4 |
| 20260507142751 | 45 | 8 | 0.0 | 3.0 | 0.00 | 0.00 | 0.00 | 47 | 1015.4 |
| 20260507142248 | 45 | 261 | 4.0 | 5.0 | 0.00 | 0.00 | 0.00 | 47 | 1015.4 |
| 20260507141745 | 44 | 18 | 0.0 | 2.0 | 0.00 | 0.00 | 0.00 | 46 | 1015.2 |